| time (UTC) | temp F | wind direction | speed MPH | gust MPH | rain 1hr in | rain 24hr in | rain mn in | humidity % | barometer mb |
| 20260509100049 | 55 | 227 | 7.0 | 0.0 | 0.00 | 0.00 | 0.00 | 53 | 1002.3 |
| 20260509094525 | 54 | 214 | 9.0 | 0.0 | 0.00 | 0.00 | 0.00 | 55 | 1002.6 |
| 20260509093027 | 54 | 233 | 8.0 | 0.0 | 0.00 | 0.00 | 0.00 | 54 | 1002.7 |
| 20260509091524 | 54 | 227 | 7.0 | 0.0 | 0.00 | 0.00 | 0.00 | 53 | 1002.4 |
| 20260509090053 | 55 | 216 | 6.0 | 0.0 | 0.00 | 0.00 | 0.00 | 52 | 1002.7 |
| 20260509084534 | 54 | 279 | 6.0 | 0.0 | 0.00 | 0.00 | 0.00 | 52 | 1002.7 |
| 20260509083046 | 55 | 231 | 6.0 | 0.0 | 0.00 | 0.00 | 0.00 | 52 | 1002.7 |
| 20260509081547 | 56 | 236 | 7.0 | 0.0 | 0.00 | 0.00 | 0.00 | 49 | 1002.6 |
| 20260509080013 | 56 | 234 | 6.0 | 0.0 | 0.00 | 0.00 | 0.00 | 48 | 1002.6 |
| 20260509074540 | 55 | 238 | 5.0 | 0.0 | 0.00 | 0.00 | 0.00 | 48 | 1002.8 |
| 20260509073044 | 56 | 241 | 5.0 | 0.0 | 0.00 | 0.00 | 0.00 | 48 | 1003.0 |
| 20260509071553 | 56 | 238 | 4.0 | 0.0 | 0.00 | 0.00 | 0.00 | 47 | 1003.0 |
| 20260509070003 | 56 | 224 | 4.0 | 0.0 | 0.00 | 0.00 | 0.00 | 46 | 1003.6 |
| 20260509064508 | 55 | 240 | 4.0 | 0.0 | 0.00 | 0.00 | 0.00 | 48 | 1003.6 |
| 20260509063041 | 55 | 220 | 3.0 | 0.0 | 0.00 | 0.00 | 0.00 | 51 | 1003.8 |
| 20260509061508 | 55 | 237 | 2.0 | 0.0 | 0.00 | 0.00 | 0.00 | 50 | 1003.9 |
| 20260509060036 | 56 | 223 | 1.0 | 0.0 | 0.00 | 0.00 | 0.00 | 48 | 1003.9 |
| 20260509054536 | 56 | 230 | 2.0 | 0.0 | 0.00 | 0.00 | 0.00 | 47 | 1004.0 |
| 20260509053046 | 57 | 220 | 2.0 | 0.0 | 0.00 | 0.00 | 0.00 | 45 | 1004.1 |
| 20260509051551 | 57 | 231 | 3.0 | 0.0 | 0.00 | 0.00 | 0.00 | 45 | 1004.4 |
| 20260509050058 | 57 | 214 | 2.0 | 0.0 | 0.00 | 0.00 | 0.00 | 46 | 1004.7 |
| 20260509044559 | 57 | 234 | 2.0 | 0.0 | 0.00 | 0.00 | 0.00 | 46 | 1004.8 |
| 20260509043103 | 57 | 234 | 2.0 | 0.0 | 0.00 | 0.00 | 0.00 | 46 | 1004.4 |
| 20260509041504 | 57 | 234 | 2.0 | 0.0 | 0.00 | 0.00 | 0.00 | 47 | 1005.0 |
| 20260509040008 | 58 | 234 | 2.0 | 0.0 | 0.00 | 0.00 | 0.00 | 46 | 1005.0 |
| 20260509034523 | 58 | 234 | 3.0 | 0.0 | 0.00 | 0.00 | 0.00 | 46 | 1004.8 |
| 20260509033048 | 59 | 231 | 2.0 | 0.0 | 0.00 | 0.00 | 0.00 | 46 | 1004.6 |
| 20260509031533 | 60 | 222 | 1.0 | 0.0 | 0.00 | 0.00 | 0.00 | 46 | 1004.6 |
| 20260509030027 | 61 | 350 | 2.0 | 0.0 | 0.00 | 0.00 | 0.00 | 43 | 1004.9 |
| 20260509024533 | 62 | 350 | 1.0 | 0.0 | 0.00 | 0.00 | 0.00 | 41 | 1004.7 |
| 20260509023059 | 63 | 350 | 0.0 | 0.0 | 0.00 | 0.00 | 0.00 | 37 | 1004.3 |
| 20260509023001 | 63 | 350 | 0.0 | 0.0 | 0.00 | 0.00 | 0.00 | 37 | 1004.0 |
| 20260509021509 | 64 | 350 | 0.0 | 0.0 | 0.00 | 0.00 | 0.00 | 35 | 1004.0 |
| 20260509020011 | 66 | 350 | 0.0 | 0.0 | 0.00 | 0.00 | 0.00 | 33 | 1004.2 |
| 20260509014532 | 67 | 350 | 0.0 | 0.0 | 0.00 | 0.00 | 0.00 | 29 | 1003.8 |
| 20260509013041 | 68 | 350 | 1.0 | 0.0 | 0.00 | 0.00 | 0.00 | 28 | 1003.6 |
| 20260509011541 | 69 | 10 | 2.0 | 0.0 | 0.00 | 0.00 | 0.00 | 28 | 1003.3 |
| 20260509010049 | 70 | 24 | 2.0 | 0.0 | 0.00 | 0.00 | 0.00 | 27 | 1003.3 |
| 20260509004600 | 71 | 7 | 4.0 | 0.0 | 0.00 | 0.00 | 0.00 | 25 | 1003.4 |
| 20260509003004 | 72 | 356 | 5.0 | 0.0 | 0.00 | 0.00 | 0.00 | 25 | 1003.3 |
| 20260509001527 | 73 | 1 | 4.0 | 0.0 | 0.00 | 0.00 | 0.00 | 24 | 1003.3 |
| 20260509000054 | 73 | 27 | 3.0 | 0.0 | 0.00 | 0.00 | 0.00 | 24 | 1003.3 |
| 20260508234502 | 73 | 334 | 5.0 | 0.0 | 0.00 | 0.00 | 0.00 | 24 | 1003.4 |
| 20260508233013 | 73 | 28 | 8.0 | 0.0 | 0.00 | 0.00 | 0.00 | 24 | 1003.4 |
| 20260508231531 | 73 | 302 | 8.0 | 0.0 | 0.00 | 0.00 | 0.00 | 24 | 1003.4 |
| 20260508230055 | 73 | 325 | 6.0 | 0.0 | 0.00 | 0.00 | 0.00 | 24 | 1003.2 |
| 20260508224515 | 72 | 48 | 6.0 | 0.0 | 0.00 | 0.00 | 0.00 | 27 | 1003.4 |
| 20260508223034 | 75 | 351 | 6.0 | 0.0 | 0.00 | 0.00 | 0.00 | 26 | 1003.4 |
| 20260508221609 | 74 | 332 | 6.0 | 0.0 | 0.00 | 0.00 | 0.00 | 26 | 1003.5 |
| 20260508220009 | 72 | 294 | 8.0 | 0.0 | 0.00 | 0.00 | 0.00 | 28 | 1003.5 |
| 20260508214539 | 72 | 291 | 6.0 | 0.0 | 0.00 | 0.00 | 0.00 | 28 | 1003.7 |
| 20260508213039 | 73 | 350 | 7.0 | 0.0 | 0.00 | 0.00 | 0.00 | 27 | 1003.4 |
| 20260508211548 | 73 | 27 | 5.0 | 0.0 | 0.00 | 0.00 | 0.00 | 29 | 1003.5 |
| 20260508210048 | 72 | 42 | 8.0 | 0.0 | 0.00 | 0.00 | 0.00 | 33 | 1003.8 |
| 20260508204552 | 72 | 326 | 7.0 | 0.0 | 0.00 | 0.00 | 0.00 | 29 | 1003.9 |
| 20260508203020 | 72 | 14 | 6.0 | 0.0 | 0.00 | 0.00 | 0.00 | 30 | 1004.2 |
| 20260508201550 | 70 | 17 | 7.0 | 0.0 | 0.00 | 0.00 | 0.00 | 30 | 1004.3 |
| 20260508200108 | 70 | 24 | 9.0 | 0.0 | 0.00 | 0.00 | 0.00 | 29 | 1004.4 |
| 20260508194542 | 71 | 329 | 7.0 | 0.0 | 0.00 | 0.00 | 0.00 | 30 | 1004.4 |
| 20260508193008 | 70 | 0 | 9.0 | 0.0 | 0.00 | 0.00 | 0.00 | 34 | 1004.5 |
| 20260508191516 | 68 | 30 | 7.0 | 0.0 | 0.00 | 0.00 | 0.00 | 33 | 1004.8 |
| 20260508190028 | 67 | 336 | 8.0 | 0.0 | 0.00 | 0.00 | 0.00 | 35 | 1005.0 |
| 20260508184530 | 67 | 326 | 9.0 | 0.0 | 0.00 | 0.00 | 0.00 | 40 | 1005.3 |
| 20260508183034 | 67 | 257 | 9.0 | 0.0 | 0.00 | 0.00 | 0.00 | 36 | 1005.1 |
| 20260508181609 | 68 | 323 | 9.0 | 0.0 | 0.00 | 0.00 | 0.00 | 34 | 1005.1 |
| 20260508180107 | 68 | 312 | 9.0 | 0.0 | 0.00 | 0.00 | 0.00 | 33 | 1005.2 |
| 20260508180002 | 68 | 326 | 9.0 | 0.0 | 0.00 | 0.00 | 0.00 | 33 | 1005.4 |
| 20260508174506 | 68 | 0 | 7.0 | 0.0 | 0.00 | 0.00 | 0.00 | 36 | 1005.4 |
| 20260508173103 | 67 | 39 | 10.0 | 0.0 | 0.00 | 0.00 | 0.00 | 36 | 1005.8 |
| 20260508171553 | 66 | 28 | 8.0 | 0.0 | 0.00 | 0.00 | 0.00 | 39 | 1005.7 |
| 20260508170049 | 65 | 356 | 10.0 | 0.0 | 0.00 | 0.00 | 0.00 | 40 | 1005.8 |
| 20260508164547 | 65 | 339 | 9.0 | 0.0 | 0.00 | 0.00 | 0.00 | 35 | 1006.0 |
| 20260508163009 | 64 | 329 | 10.0 | 0.0 | 0.00 | 0.00 | 0.00 | 40 | 1006.2 |
| 20260508161531 | 63 | 357 | 10.0 | 0.0 | 0.00 | 0.00 | 0.00 | 45 | 1006.0 |
| 20260508160044 | 62 | 340 | 11.0 | 0.0 | 0.00 | 0.00 | 0.00 | 48 | 1006.1 |
| 20260508154545 | 62 | 261 | 11.0 | 0.0 | 0.00 | 0.00 | 0.00 | 51 | 1006.3 |
| 20260508153043 | 60 | 333 | 11.0 | 0.0 | 0.00 | 0.00 | 0.00 | 53 | 1006.4 |
| 20260508151544 | 59 | 326 | 11.0 | 0.0 | 0.00 | 0.00 | 0.00 | 57 | 1006.5 |
| 20260508150104 | 57 | 1 | 8.0 | 0.0 | 0.00 | 0.00 | 0.00 | 64 | 1006.4 |
| 20260508144601 | 55 | 320 | 9.0 | 0.0 | 0.00 | 0.00 | 0.00 | 67 | 1006.3 |
| 20260508143051 | 54 | 346 | 7.0 | 0.0 | 0.00 | 0.00 | 0.00 | 70 | 1006.4 |
| 20260508141600 | 54 | 313 | 9.0 | 0.0 | 0.00 | 0.00 | 0.00 | 71 | 1006.2 |
| 20260508140059 | 53 | 351 | 7.0 | 0.0 | 0.00 | 0.00 | 0.00 | 74 | 1005.4 |
| 20260508134558 | 52 | 323 | 4.0 | 0.0 | 0.00 | 0.00 | 0.00 | 75 | 1005.7 |
| 20260508133008 | 52 | 306 | 6.0 | 0.0 | 0.00 | 0.00 | 0.00 | 75 | 1005.7 |
| 20260508131503 | 51 | 334 | 6.0 | 0.0 | 0.00 | 0.00 | 0.00 | 77 | 1005.0 |
| 20260508130010 | 50 | 260 | 5.0 | 0.0 | 0.00 | 0.00 | 0.00 | 76 | 1005.0 |
| 20260508124506 | 50 | 15 | 5.0 | 0.0 | 0.00 | 0.00 | 0.00 | 76 | 1004.8 |
| 20260508123016 | 51 | 333 | 7.0 | 0.0 | 0.00 | 0.00 | 0.00 | 76 | 1004.5 |
| 20260508121518 | 50 | 315 | 7.0 | 0.0 | 0.00 | 0.00 | 0.00 | 76 | 1004.2 |
| 20260508120022 | 50 | 285 | 8.0 | 0.0 | 0.00 | 0.00 | 0.00 | 78 | 1003.3 |
| 20260508114536 | 50 | 312 | 4.0 | 0.0 | 0.00 | 0.00 | 0.00 | 79 | 1002.8 |
| 20260508113044 | 51 | 330 | 4.0 | 0.0 | 0.00 | 0.00 | 0.00 | 79 | 1002.7 |
| 20260508111551 | 51 | 333 | 5.0 | 0.0 | 0.00 | 0.00 | 0.00 | 78 | 1002.8 |
| 20260508110054 | 51 | 292 | 3.0 | 0.0 | 0.00 | 0.00 | 0.00 | 78 | 1002.4 |
| 20260508104512 | 52 | 292 | 2.0 | 0.0 | 0.00 | 0.00 | 0.00 | 77 | 1002.4 |
| 20260508103042 | 52 | 326 | 3.0 | 0.0 | 0.00 | 0.00 | 0.00 | 76 | 1002.3 |
| 20260508101537 | 53 | 294 | 3.0 | 0.0 | 0.00 | 0.00 | 0.00 | 75 | 1002.2 |